Regional Weather Roundup
Issued by NWS New Orleans/Baton Rouge, LA

Home | Current Version | Previous Version | Text Only | Print | Product List | Glossary On
Versions: 1 2 3 4 5 6 7 8 9 10 11 12 13 14 15 16 17 18 19 20 21 22 23 24 25 26 27 28 29 30 31 32 33 34 35 36 37 38 39 40 41 42 43 44 45 46 47 48 49 50
000
ASUS44 KLIX 020010
RWRLIX
NEW ORLEANS REGIONAL WEATHER ROUNDUP
NATIONAL WEATHER SERVICE NEW ORLEANS LA
600 PM CST SUN FEB 01 2015

NOTE: "FAIR" INDICATES FEW OR NO CLOUDS BELOW 12,000 FEET WITH NO
      SIGNIFICANT WEATHER AND/OR OBSTRUCTIONS TO VISIBILITY.
      SKY/WX - SKY CONDITION AND SIGNIFICANT WEATHER.
      TMP - AIR TEMPERATURE.     DP    - DEWPOINT TEMPERATURE.
      RH  - RELATIVE HUMIDITY.   PRES  - PRESSURE.
      HI  - HEAT INDEX.          WCI   - WIND CHILL INDEX.

*  THESE STATIONS ARE NOT NWS OR FAA STATIONS AND ARE NOT UNDER
   NWS QUALITY CONTROL.

LAZ038-040-048-061>063-065>067-069-020100-
SOUTHEAST LOUISIANA

CITY           SKY/WX    TMP DP  RH WIND       PRES   REMARKS
N.O. AUDUBON     N/A     68  63  83 MISG        N/A
6HR MIN TEMP:  67; 6HR MAX TEMP:  75;

N.O. INTL ARPT MOCLDY    70  61  73 SW16      29.90S
6HR MIN TEMP:  70; 6HR MAX TEMP:  75;

N.O. LAKEFRONT CLOUDY    70  59  68 SW16      29.89F
6HR MIN TEMP:  68; 6HR MAX TEMP:  75; 6HR PCP:  0.02;

N.O. DOWNTOWN* NOT AVBL
SLIDELL        MOCLDY    69  59  70 SW8       29.89S
6HR MIN TEMP:  67; 6HR MAX TEMP:  73; 6HR PCP:  0.01;

BATON ROUGE    PTCLDY    67  62  84 SW14      29.86F
6HR MIN TEMP:  64; 6HR MAX TEMP:  68; 6HR PCP:  0.15;

BOOTHVILLE     MOCLDY    66  63  90 SW7       29.93R
6HR MIN TEMP:  66; 6HR MAX TEMP:  72;

BELLE CHASSE   CLOUDY    71  61  70 SW12      29.90S
6HR MIN TEMP:  71; 6HR MAX TEMP:  75;

BOGALUSA*      LGT RAIN  66  61  84 S6        29.89S
6HR MIN TEMP:  66; 6HR MAX TEMP:  74; 6HR PCP:  0.10;

GALLIANO*      CLOUDY    69  64  85 MISG      29.93R
6HR MIN TEMP:  69; 6HR MAX TEMP:  74;

NEW ROADS*       N/A     69  61  76 SW12G18   29.86S
6HR MIN TEMP:  64; 6HR MAX TEMP:  71; 6HR PCP:  0.07;

GONZALES*      CLOUDY    68  65  89 SW9       29.89S
6HR MIN TEMP:  67; 6HR MAX TEMP:  71; 6HR PCP:  0.07;

HAMMOND*       MOCLDY    66  61  82 S5        29.89F
HOUMA*         NOT AVBL
PORT FOURCHON* MOCLDY    68  64  88 SW7       29.96R

$$

MSZ070-080>082-020100-
SOUTHERN MISSISSIPPI

CITY           SKY/WX    TMP DP  RH WIND       PRES   REMARKS
MCCOMB         CLOUDY    65  62  90 SW12G18   29.84F
6HR MIN TEMP:  63; 6HR MAX TEMP:  66; 6HR PCP:  0.17;

GULFPORT       MOCLDY    64  61  90 S3        29.89R
6HR MIN TEMP:  64; 6HR MAX TEMP:  68;

BILOXI         MOCLDY    62  62 100 W7        29.89S
6HR MIN TEMP:  62; 6HR MAX TEMP:  67;

PASCAGOULA     MOCLDY    62  61  96 SW6       29.90S
6HR MIN TEMP:  62; 6HR MAX TEMP:  68; 6HR PCP: TRACE;


$$

COASTAL OBSERVATIONS
LAKE AND NEARSHORE STATIONS

STATION/POSITION TIME  TEMP    WIND        PRES    WAVE
                       AIR SEA DIR/SP/G            HT/PER
                 (UTC) (F)     (DEG/KT/KT) (MB)    (FT/S)
PASCAGOULA       0000   61     220/  6/  7 1012.0
WAVELAND YACHT   0000   66     230/  3/  4 1011.4
GRAND ISLE       0000   67 65  230/  4/  6 1013.9
SOUTHWEST PASS   0000   63 51  230/ 10/ 10 1013.8
NEW CANAL        0000   71 57  220/  9/ 13 1012.5
SHELL BEACH      0000   68 58  230/ 10/ 13 1012.6

OFFSHORE STATIONS

STATION/POSITION TIME  TEMP    WIND        PRES    WAVE
                       AIR SEA DIR/SP/G            HT/PER
                 (UTC) (F)     (DEG/KT/KT) (MB)    (FT/S)

$$



USA.gov is the U.S. government's official web portal to all federal, state and local government web resources and services.